Home > Weather > Schwäbisch Hall > Past weeks

Flag for Germany Weather for the Past 2 Weeks in Schwäbisch Hall, Baden-Württemberg, Germany

Now
37 °F

Passing clouds.


Feels Like: 35 °F
Forecast: 28 / 56 °F
Wind: 3 mph from South

Location: Niederstetten

Current Time: Apr 28, 2016 at 10:51:51 PM

Latest Report: Apr 28, 2016 at 10:20 PM


Visibility: N/A

Pressure: 30.04 "Hg

Humidity: 70%

Dew Point: 28 °F

Location of Schwäbisch HallLocation

Historic Weather in Schwäbisch Hall — Graph

°F

Schwäbisch Hall Temperature Yesterday

Maximum temperature yesterday: 41 °F (at 2:20 PM)
Minimum temperature yesterday: 32 °F (at 3:20 AM)
Average temperature yesterday: 36 °F

High & Low Weather Summary for the Past Weeks

 TemperatureHumidityPressure
High63 °F (Apr 21, 3:20 PM)100% (Apr 16, 9:20 AM)30.39 "Hg (Apr 16, 9:20 AM)
Low30 °F (Apr 24, 6:20 AM)30% (Apr 20, 3:20 PM)29.50 "Hg (Apr 26, 5:20 AM)
Average43 °F76%29.91 "Hg
* Reported Apr 13 9:20 PM — Apr 28 9:20 PM, Schwäbisch Hall, Weather by CustomWeather, © 2016

Note: Actual official high and low records may vary slightly from our data, if they occured in-between our weather recording intervals... More about our weather records

Advertising

Schwäbisch Hall Weather History for the Previous 24 Hours

Scroll right to see more
 ConditionsComfort  
Time TempWeatherWind HumidityBarometerVisibility
9:20 PM
Thu, Apr 28
41 °FPassing clouds.5 mph61%30.01 "HgN/A
8:20 PM43 °FPassing clouds.5 mph57%30.01 "HgN/A
7:20 PM46 °FPassing clouds.7 mph46%29.98 "HgN/A
6:20 PM46 °FPassing clouds.7 mph50%29.98 "HgN/A
5:20 PM45 °FPassing clouds.10 mph46%29.98 "HgN/A
4:20 PM45 °FPassing clouds.8 mph57%29.98 "HgN/A
3:20 PM45 °FScattered showers. Scattered clouds.10 mph57%29.98 "HgN/A
2:20 PM43 °FScattered clouds.7 mph53%29.98 "HgN/A
1:20 PM41 °FBroken clouds.9 mph66%29.98 "HgN/A
12:20 PM41 °FSprinkles. Broken clouds.7 mph70%29.98 "HgN/A
11:20 AM41 °FBroken clouds.7 mph70%29.98 "HgN/A
10:20 AM39 °FBroken clouds.7 mph75%29.95 "HgN/A
9:20 AM39 °FBroken clouds.10 mph81%29.95 "HgN/A
7:20 AM34 °FBroken clouds.5 mph87%29.92 "HgN/A
6:20 AM32 °FPassing clouds.3 mph93%29.92 "HgN/A
5:20 AM30 °FPassing clouds.6 mph100%29.92 "HgN/A
4:20 AM30 °FPassing clouds.5 mph100%29.89 "HgN/A
3:20 AM32 °FPassing clouds.3 mph93%29.89 "HgN/A
2:20 AM32 °FChilly.5 mph93%29.89 "HgN/A
1:20 AM32 °FChilly.7 mph93%29.89 "HgN/A
12:20 AM32 °FPassing clouds.7 mph93%29.89 "HgN/A
11:20 PM
Wed, Apr 27
32 °FChilly.8 mph93%29.89 "HgN/A
10:20 PM34 °FPassing clouds.10 mph87%29.89 "HgN/A
Weather by CustomWeather, © 2016

See weather overviewHow to use our weather pages